Starlink 31518

operational
NORAD ID: 59219 Int'l Des: 2024-046 Owner: SPXS Country: US Constellation: starlink
LEOCIRCULAR

Starlink 31518について

説明を読み込み中...

リアルタイム位置

3D地球を読み込み中...

次回通過

高度履歴

Altitude vs Time

uPlot chart will show altitude changes over time

軌道要素

1 59219U 24046U 25349.90319227 -.00000552 00000-0 -65192-5 0 9990
2 59219 53.1597 184.3623 0001166 98.2850 261.8283 15.30202521100216
Epoch: Dec 15, 2025 • Age: 30 hours

現在のステータス

高度 478.1 km
速度 7.63 km/s
衛星直下点 -9.47°S, 34.32°E
打ち上げ日 Mar 11, 2024
運用期間 1.7 years
タイプ internet

技術仕様

分類 Payload
質量 730.00 kg
乾燥質量 700.00 kg
総質量 730.00 kg
長さ 0.30 m
直径 4.10 m
スパン 29.00 m
形状 Box + pan
製造者 SPXS
バスタイプ Starlink V2M
フェーズステータス In Orbit
所有者/国 SPXS/US

大規模コンステレーション

Loading constellations...